Flag for Russia Weather past 2 weeks in Barnaul, Russia

Now
86 °F

Passing clouds.


Feels Like: 84 °F
Forecast: 61 / 90 °F
Wind: 3 mph from Northwest

Location: Barnaul Airport

Current Time: Jun 30, 2015 at 3:07:14 PM

Latest Report: Jun 30, 2015 at 2:30 PM


Visibility: N/A

Pressure: 29.83 "Hg

Humidity: 29%

Dew point: 50 °F

Location of BarnaulLocation

Historic Weather in Barnaul — Graph

°F

Barnaul temperature yesterday

Maximum temperature yesterday: 82 °F (at 2:30 PM)
Minimum temperature yesterday: 57 °F (at 3:00 AM)
Average temperature yesterday: 71 °F

Past Weeks' High & Low Weather Summary

 TemperatureHumidityPressure
High86 °F (Jun 24, 4:30 PM)83% (Jun 20, 2:00 PM)30.07 "Hg (Jun 20, 2:00 PM)
Low50 °F (Jun 26, 3:00 AM)24% (Jun 23, 3:30 PM)29.65 "Hg (Jun 24, 7:30 PM)
Average68 °F53%29.88 "Hg
* Reported Jun 15 1:00 PM — Jun 30 1:30 PM, Barnaul, Weather by CustomWeather, © 2015

Note: Actual official high and low records may vary slightly from our data, if they occured in-between our weather recording intervals... More about our weather records

Advertising

Barnaul weather history for previous 24 hours

 ConditionsComfort  
Time TempWeatherWind HumidityBarometerVisibility
1:30 PM
Tue, Jun 30
84 °FSunny.6 mph29%29.86 "Hg10 mi
1:00 PM84 °FPassing clouds.6 mph31%29.86 "HgN/A
12:30 PM82 °FPassing clouds.6 mph37%29.86 "HgN/A
12:00 PM82 °FPassing clouds.6 mph40%29.86 "HgN/A
11:30 AM81 °FSunny.8 mph45%29.86 "Hg10 mi
11:00 AM79 °FSunny.3 mph48%29.86 "Hg10 mi
10:30 AM77 °FSunny.6 mph51%29.89 "Hg10 mi
10:00 AM75 °FSunny.3 mph54%29.89 "Hg10 mi
9:30 AM73 °FPassing clouds.3 mph53%29.89 "HgN/A
9:00 AM72 °FSunny.6 mph57%29.89 "Hg10 mi
8:30 AM70 °FPassing clouds.3 mph60%29.89 "HgN/A
8:00 AM70 °FPassing clouds.6 mph57%29.89 "HgN/A
7:30 AM66 °FSunny.6 mph68%29.89 "Hg10 mi
7:00 AM64 °FSunny.8 mph68%29.89 "Hg10 mi
6:30 AM63 °FSunny.6 mph77%29.89 "Hg10 mi
6:00 AM63 °FSunny.3 mph73%29.89 "Hg10 mi
5:30 AM61 °FSunny.3 mph77%29.89 "Hg10 mi
5:00 AM59 °FSunny.6 mph77%29.89 "Hg10 mi
4:30 AM57 °FSunny.8 mph82%29.89 "Hg10 mi
4:00 AM57 °FSunny.8 mph82%29.89 "Hg10 mi
3:30 AM59 °FClear.6 mph72%29.89 "Hg10 mi
3:00 AM59 °FClear.3 mph72%29.89 "Hg10 mi
2:30 AM61 °FClear.6 mph68%29.89 "Hg10 mi
2:00 AM61 °FClear.6 mph72%29.89 "Hg10 mi
1:30 AM63 °FClear.6 mph64%29.89 "Hg10 mi
1:00 AM63 °FClear.6 mph64%29.89 "Hg10 mi
12:30 AM66 °FClear.6 mph56%29.89 "Hg10 mi
12:00 AM66 °FClear.6 mph56%29.89 "Hg10 mi
11:30 PM
Mon, Jun 29
66 °FClear.8 mph56%29.92 "Hg10 mi
11:00 PM66 °FClear.8 mph56%29.92 "Hg10 mi
10:30 PM66 °FClear.6 mph56%29.92 "Hg10 mi
10:00 PM68 °FClear.6 mph53%29.92 "Hg10 mi
9:30 PM70 °FClear.6 mph50%29.92 "Hg10 mi
9:00 PM70 °FClear.6 mph50%29.92 "Hg10 mi
8:30 PM72 °FSunny.8 mph47%29.89 "Hg10 mi
8:00 PM75 °FSunny.8 mph39%29.89 "Hg10 mi
7:30 PM77 °FSunny.8 mph36%29.92 "Hg10 mi
7:00 PM79 °FSunny.8 mph32%29.89 "Hg10 mi
6:30 PM81 °FSunny.10 mph32%29.89 "Hg10 mi
6:00 PM81 °FSunny.13 mph30%29.89 "Hg10 mi
5:30 PM82 °FSunny.15 mph30%29.89 "Hg10 mi
5:00 PM82 °FSunny.15 mph28%29.89 "Hg10 mi
4:30 PM82 °FSunny.15 mph28%29.89 "Hg10 mi
4:00 PM82 °FSunny.13 mph28%29.92 "Hg10 mi
3:30 PM82 °FSunny.13 mph28%29.92 "Hg10 mi
3:00 PM82 °FSunny.15 mph28%29.92 "Hg10 mi
Weather by CustomWeather, © 2015

See weather overviewHow to use our weather pages